.
WxDataArchive / Data Records for 2015-09-05
2015-09-04 September 2015 2015-09-06

Data Records for Saturday, 05 September 2015

Time	Temp	Chill	HIndex	Humid	Dewpt	 Wind 	HiWind	WindDir	Rain 	Barom
-----	----	-----	------	-----	-----	------	------	-------	-----	-----
00:00	66.3	66.3	66.3	95	64.8	0	0	---	0.00	30.039 
00:05	66.1	66.1	66.1	95	64.6	0	0	---	0.00	30.039 
00:10	66.1	66.1	66.1	95	64.6	0	0	---	0.00	30.039 
00:15	66.1	66.1	66.1	95	64.6	0	0	---	0.00	30.050 
00:20	66.1	66.1	66.1	95	64.6	0	0	---	0.00	30.050 
00:25	66.1	66.1	66.1	95	64.6	0	0	---	0.00	30.050 
00:30	66.1	66.1	66.1	95	64.6	0	0	---	0.00	30.048 
00:35	66.1	66.1	66.1	95	64.6	0	0	---	0.00	30.048 
00:40	66.1	66.1	66.1	95	64.6	0	0	---	0.00	30.048 
00:45	66.0	66.0	66.0	95	64.5	0	0	---	0.00	30.048 
00:50	66.0	66.0	66.0	95	64.5	0	0	---	0.00	30.048 
00:55	66.0	66.0	66.0	95	64.5	0	0	---	0.00	30.048 
01:00	66.0	66.0	66.0	95	64.5	0	0	---	0.00	30.047 
01:05	66.0	66.0	66.0	95	64.5	0	0	---	0.00	30.047 
01:10	66.0	66.0	66.0	95	64.5	0	0	---	0.00	30.047 
01:15	66.0	66.0	66.0	95	64.5	0	0	---	0.00	30.050 
01:20	66.0	66.0	66.0	95	64.5	0	0	---	0.00	30.050 
01:25	66.0	66.0	66.0	95	64.5	0	0	---	0.00	30.050 
01:30	66.0	66.0	66.0	95	64.5	0	0	---	0.00	30.050 
01:35	66.0	66.0	66.0	95	64.5	0	0	---	0.00	30.050 
01:40	66.0	66.0	66.0	95	64.5	0	0	---	0.00	30.050 
01:45	66.0	66.0	66.0	95	64.5	0	0	---	0.00	30.045 
01:50	66.0	66.0	66.0	95	64.5	0	0	---	0.00	30.045 
01:55	65.8	65.8	65.8	95	64.3	0	0	---	0.00	30.045 
02:00	65.8	65.8	65.8	95	64.3	0	0	---	0.00	30.044 
02:05	65.8	65.8	65.8	95	64.3	0	0	---	0.00	30.044 
02:10	65.8	65.8	65.8	95	64.3	0	0	---	0.00	30.044 
02:15	65.6	65.6	65.6	95	64.1	0	0	---	0.00	30.045 
02:20	65.6	65.6	65.6	95	64.1	0	0	---	0.00	30.045 
02:25	65.5	65.5	65.5	95	64.0	0	0	---	0.00	30.045 
02:30	65.5	65.5	65.5	95	64.0	0	0	---	0.00	30.039 
02:35	65.5	65.5	65.5	95	64.0	0	0	---	0.00	30.039 
02:40	65.5	65.5	65.5	95	64.0	0	0	---	0.00	30.039 
02:45	65.5	65.5	65.5	95	64.0	0	0	---	0.00	30.047 
02:50	65.5	65.5	65.5	95	64.0	0	0	---	0.00	30.047 
02:55	65.5	65.5	65.5	95	64.0	0	0	---	0.00	30.047 
03:00	65.5	65.5	65.5	95	64.0	0	0	---	0.00	30.048 
03:05	65.5	65.5	65.5	95	64.0	0	0	---	0.00	30.048 
03:10	65.5	65.5	65.5	95	64.0	0	0	---	0.00	30.048 
03:15	65.5	65.5	65.5	95	64.0	0	1	292	0.00	30.038 
03:20	65.5	65.5	65.5	95	64.0	0	0	---	0.00	30.038 
03:25	65.5	65.5	65.5	95	64.0	0	0	---	0.00	30.038 
03:30	65.5	65.5	65.5	95	64.0	0	0	---	0.00	30.040 
03:35	65.5	65.5	65.5	95	64.0	0	0	---	0.00	30.040 
03:40	65.5	65.5	65.5	95	64.0	0	0	---	0.00	30.040 
03:45	65.5	65.5	65.5	95	64.0	0	1	292	0.00	30.041 
03:50	65.5	65.5	65.5	95	64.0	0	0	---	0.00	30.041 
03:55	65.3	65.3	65.3	95	63.8	0	0	---	0.00	30.041 
04:00	65.3	65.3	65.3	95	63.8	0	0	---	0.00	30.046 
04:05	65.3	65.3	65.3	95	63.8	0	0	---	0.00	30.046 
04:10	65.3	65.3	65.3	96	64.1	0	0	---	0.00	30.046 
04:15	65.3	65.3	65.3	95	63.8	0	0	---	0.00	30.046 
04:20	65.3	65.3	65.3	95	63.8	0	0	---	0.00	30.046 
04:25	65.5	65.5	65.5	95	64.0	0	1	292	0.00	30.046 
04:30	65.5	65.5	65.5	95	64.0	0	1	292	0.00	30.041 
04:35	65.5	65.5	65.5	95	64.0	0	0	---	0.00	30.041 
04:40	65.5	65.5	65.5	95	64.0	0	0	---	0.00	30.041 
04:45	65.5	65.5	65.5	96	64.3	0	0	---	0.00	30.043 
04:50	65.5	65.5	65.5	95	64.0	0	0	---	0.00	30.043 
04:55	65.5	65.5	65.5	95	64.0	0	0	---	0.00	30.043 
05:00	65.5	65.5	65.5	95	64.0	0	0	---	0.00	30.047 
05:05	65.5	65.5	65.5	95	64.0	0	0	---	0.00	30.047 
05:10	65.3	65.3	65.3	95	63.8	0	0	---	0.00	30.047 
05:15	65.3	65.3	65.3	95	63.8	0	0	---	0.00	30.055 
05:20	65.3	65.3	65.3	95	63.8	0	0	---	0.00	30.055 
05:25	65.2	65.2	65.2	95	63.7	0	1	292	0.00	30.055 
05:30	65.2	65.2	65.2	95	63.7	0	0	---	0.00	30.058 
05:35	65.2	65.2	65.2	95	63.7	0	0	---	0.00	30.058 
05:40	65.0	65.0	65.0	95	63.5	0	0	---	0.00	30.058 
05:45	65.0	65.0	65.0	95	63.5	0	0	---	0.00	30.057 
05:50	65.0	65.0	65.0	95	63.5	0	0	---	0.00	30.057 
05:55	64.8	64.8	64.8	95	63.3	0	0	---	0.00	30.057 
06:00	64.8	64.8	64.8	95	63.3	0	0	---	0.00	30.065 
06:05	64.7	64.7	64.7	96	63.5	0	0	---	0.00	30.065 
06:10	64.7	64.7	64.7	95	63.2	0	0	---	0.00	30.065 
06:15	64.7	64.7	64.7	96	63.5	0	0	---	0.00	30.068 
06:20	64.5	64.5	64.5	96	63.3	0	0	---	0.00	30.068 
06:25	64.5	64.5	64.5	95	63.0	0	0	---	0.00	30.068 
06:30	64.3	64.3	64.3	95	62.8	0	0	---	0.00	30.069 
06:35	64.3	64.3	64.3	96	63.1	0	0	---	0.00	30.069 
06:40	64.3	64.3	64.3	96	63.1	0	0	---	0.00	30.069 
06:45	64.3	64.3	64.3	96	63.1	0	0	---	0.00	30.074 
06:50	64.3	64.3	64.3	96	63.1	0	0	---	0.00	30.074 
06:55	64.3	64.3	64.3	96	63.1	0	0	---	0.00	30.074 
07:00	64.2	64.2	64.2	96	63.0	0	0	---	0.00	30.076 
07:05	64.2	64.2	64.2	96	63.0	0	0	---	0.00	30.076 
07:10	64.3	64.3	64.3	96	63.1	0	0	---	0.00	30.076 
07:15	64.3	64.3	64.3	96	63.1	0	0	---	0.00	30.076 
07:20	64.3	64.3	64.3	96	63.1	0	0	---	0.00	30.076 
07:25	64.3	64.3	64.3	96	63.1	0	0	---	0.00	30.076 
07:30	64.3	64.3	64.3	96	63.1	0	0	---	0.00	30.072 
07:35	64.3	64.3	64.3	96	63.1	0	0	---	0.00	30.072 
07:40	64.3	64.3	64.3	96	63.1	0	0	---	0.00	30.072 
07:45	64.3	64.3	64.3	96	63.1	0	0	---	0.00	30.086 
07:50	64.3	64.3	64.3	96	63.1	0	0	---	0.00	30.086 
07:55	64.3	64.3	64.3	96	63.1	0	0	---	0.00	30.086 
08:00	64.5	64.5	64.5	96	63.3	0	0	---	0.00	30.087 
08:05	64.7	64.7	64.7	96	63.5	0	0	---	0.00	30.087 
08:10	65.0	65.0	65.0	96	63.8	0	0	---	0.00	30.087 
08:15	65.3	65.3	65.3	96	64.1	0	1	292	0.00	30.093 
08:20	65.5	65.5	65.5	96	64.3	0	1	292	0.00	30.093 
08:25	65.6	65.6	65.6	96	64.4	0	1	292	0.00	30.093 
08:30	65.8	65.8	65.8	96	64.6	0	1	292	0.00	30.101 
08:35	66.0	66.0	66.0	96	64.8	0	1	292	0.00	30.101 
08:40	66.3	66.3	66.3	96	65.1	0	0	---	0.00	30.101 
08:45	66.4	66.4	66.4	95	64.9	0	1	292	0.00	30.101 
08:50	66.6	66.6	66.6	95	65.1	0	1	292	0.00	30.101 
08:55	66.9	66.9	66.9	95	65.4	0	1	292	0.00	30.101 
09:00	67.4	67.4	67.4	95	65.9	0	0	---	0.00	30.099 
09:05	67.9	67.9	67.9	95	66.4	0	1	292	0.00	30.099 
09:10	68.3	68.3	68.3	94	66.5	0	0	---	0.00	30.099 
09:15	68.6	68.6	68.6	94	66.8	0	0	---	0.00	30.099 
09:20	69.1	69.1	69.1	94	67.3	0	0	---	0.00	30.099 
09:25	69.6	69.6	69.6	93	67.5	0	1	292	0.00	30.099 
09:30	69.9	69.9	69.9	92	67.5	0	1	292	0.00	30.097 
09:35	70.4	70.4	70.4	91	67.6	0	1	292	0.00	30.097 
09:40	70.9	70.9	70.9	90	67.8	0	0	---	0.00	30.097 
09:45	71.3	71.3	71.3	88	67.6	0	1	292	0.00	30.093 
09:50	71.6	71.6	71.6	87	67.5	0	0	---	0.00	30.093 
09:55	71.8	71.8	71.8	86	67.4	0	0	---	0.00	30.093 
10:00	72.0	72.0	72.0	85	67.2	0	1	292	0.00	30.097 
10:05	72.1	72.1	72.1	85	67.3	0	1	292	0.00	30.097 
10:10	72.1	72.1	72.1	85	67.3	0	1	292	0.00	30.097 
10:15	72.3	72.3	72.3	85	67.5	0	1	292	0.00	30.099 
10:20	72.3	72.3	72.3	85	67.5	0	1	292	0.00	30.099 
10:25	72.3	72.3	72.3	85	67.5	0	1	292	0.00	30.099 
10:30	72.3	72.3	72.3	85	67.5	1	3	292	0.00	30.108 
10:35	72.3	72.3	72.3	86	67.9	0	1	292	0.00	30.108 
10:40	72.3	72.3	72.3	84	67.2	1	4	292	0.00	30.108 
10:45	72.3	72.3	72.3	84	67.2	1	4	90	0.00	30.113 
10:50	72.3	72.3	72.3	82	66.5	1	5	90	0.00	30.113 
10:55	72.5	72.5	72.5	82	66.7	1	5	90	0.00	30.113 
11:00	72.5	72.5	72.5	82	66.7	1	4	90	0.00	30.121 
11:05	72.8	72.8	72.8	82	67.0	1	4	225	0.00	30.121 
11:10	72.7	72.7	72.7	82	66.9	2	6	158	0.00	30.121 
11:15	72.5	72.5	72.5	82	66.7	2	6	68	0.00	30.131 
11:20	72.3	72.3	72.3	83	66.8	1	4	45	0.00	30.131 
11:25	72.1	72.1	72.1	83	66.6	2	5	112	0.00	30.131 
11:30	72.0	72.0	72.0	84	66.9	1	4	112	0.00	30.129 
11:35	72.1	72.1	72.1	84	67.0	0	3	135	0.00	30.129 
11:40	72.5	72.5	72.5	84	67.4	1	4	90	0.00	30.129 
11:45	72.8	72.8	72.8	82	67.0	0	3	90	0.00	30.130 
11:50	72.8	72.8	72.8	82	67.0	0	1	90	0.00	30.130 
11:55	72.8	72.8	72.8	83	67.3	0	2	90	0.00	30.130 
12:00	72.8	72.8	72.8	84	67.7	0	2	90	0.01	30.127 
12:05	73.0	73.0	73.0	85	68.2	0	1	90	0.00	30.127 
12:10	73.0	73.0	73.0	85	68.2	0	2	90	0.00	30.127 
12:15	73.0	73.0	73.0	85	68.2	0	2	90	0.01	30.121 
12:20	73.0	73.0	73.0	84	67.9	0	2	90	0.00	30.121 
12:25	73.0	73.0	73.0	85	68.2	0	1	90	0.00	30.121 
12:30	73.2	73.2	73.2	84	68.1	0	1	90	0.00	30.126 
12:35	73.7	73.7	73.7	84	68.6	0	1	90	0.00	30.126 
12:40	74.4	74.4	74.4	81	68.2	0	2	90	0.00	30.126 
12:45	75.1	75.1	75.8	79	68.1	1	3	90	0.00	30.114 
12:50	76.0	76.0	77.1	79	69.0	1	2	180	0.00	30.114 
12:55	76.7	76.7	78.2	76	68.5	0	3	90	0.00	30.114 
13:00	77.4	77.4	79.3	74	68.4	0	2	90	0.00	30.111 
13:05	77.9	77.9	80.0	73	68.5	0	2	90	0.00	30.111 
13:10	78.5	78.5	80.8	72	68.7	0	2	90	0.00	30.111 
13:15	78.6	78.6	80.9	71	68.4	0	2	90	0.00	30.114 
13:20	78.8	78.8	81.1	69	67.7	0	1	90	0.00	30.114 
13:25	78.5	78.5	80.7	70	67.9	0	0	---	0.00	30.114 
13:30	78.1	78.1	80.2	70	67.5	0	0	---	0.00	30.120 
13:35	77.9	77.9	79.9	72	68.1	0	0	---	0.00	30.120 
13:40	78.1	78.1	80.2	71	67.9	0	0	---	0.00	30.120 
13:45	78.5	78.5	80.8	72	68.7	0	2	90	0.00	30.123 
13:50	79.0	79.0	81.4	70	68.4	0	1	90	0.00	30.123 
13:55	78.6	78.6	80.8	69	67.6	1	3	90	0.00	30.123 
14:00	78.1	78.1	80.2	70	67.5	0	2	90	0.00	30.132 
14:05	77.6	77.6	79.5	73	68.2	1	3	45	0.00	30.132 
14:10	76.7	76.7	78.3	75	68.2	2	7	292	0.00	30.132 
14:15	76.0	76.0	77.2	77	68.3	0	3	338	0.00	30.141 
14:20	75.4	75.4	76.3	78	68.0	1	3	338	0.00	30.141 
14:25	74.6	74.6	74.6	80	68.0	2	5	90	0.10	30.141 
14:30	73.3	73.3	73.3	84	68.2	0	2	90	0.03	30.142 
14:35	72.5	72.5	72.5	86	68.1	0	1	90	0.05	30.142 
14:40	72.1	72.1	72.1	87	68.0	0	1	90	0.00	30.142 
14:45	71.8	71.8	71.8	88	68.0	0	0	---	0.00	30.128 
14:50	71.6	71.6	71.6	89	68.2	0	0	---	0.00	30.128 
14:55	71.5	71.5	71.5	90	68.4	0	2	90	0.00	30.128 
15:00	71.3	71.3	71.3	90	68.2	0	0	---	0.02	30.110 
15:05	71.3	71.3	71.3	91	68.5	0	0	---	0.00	30.110 
15:10	71.6	71.6	71.6	92	69.1	0	1	90	0.00	30.110 
15:15	72.3	72.3	72.3	92	69.8	0	1	90	0.00	30.094 
15:20	73.0	73.0	73.0	92	70.5	0	2	90	0.00	30.094 
15:25	73.5	73.5	73.5	90	70.4	0	2	68	0.00	30.094 
15:30	73.9	73.9	73.9	90	70.8	0	0	---	0.00	30.094 
15:35	74.7	74.7	74.7	89	71.2	0	1	68	0.00	30.094 
15:40	74.6	74.6	74.6	87	70.5	0	2	68	0.00	30.094 
15:45	74.7	74.7	74.7	87	70.6	1	3	68	0.00	30.080 
15:50	75.1	75.1	74.9	86	70.6	0	2	68	0.00	30.080 
15:55	75.3	75.3	75.5	84	70.1	0	2	68	0.00	30.080 
16:00	75.3	75.3	75.6	83	69.8	0	2	68	0.00	30.074 
16:05	75.6	75.6	76.1	83	70.1	0	3	68	0.00	30.074 
16:10	75.8	75.8	76.6	81	69.5	0	3	68	0.00	30.074 
16:15	76.1	76.1	77.1	81	69.8	0	2	68	0.00	30.079 
16:20	76.1	76.1	77.1	80	69.5	0	2	68	0.00	30.079 
16:25	76.0	76.0	77.1	79	69.0	0	0	---	0.00	30.079 
16:30	76.1	76.1	77.1	80	69.5	0	0	---	0.00	30.076 
16:35	76.3	76.3	77.5	80	69.7	0	1	68	0.00	30.076 
16:40	76.5	76.5	77.9	77	68.7	0	2	68	0.00	30.076 
16:45	76.7	76.7	78.2	77	68.9	0	1	68	0.00	30.064 
16:50	77.2	77.2	79.0	77	69.4	0	2	68	0.00	30.064 
16:55	77.6	77.6	79.6	77	69.8	0	2	68	0.00	30.064 
17:00	77.7	77.7	79.7	74	68.7	0	1	68	0.00	30.059 
17:05	78.1	78.1	80.3	74	69.1	0	0	---	0.00	30.059 
17:10	78.3	78.3	80.6	75	69.7	0	0	---	0.00	30.059 
17:15	78.3	78.3	80.6	75	69.7	0	0	---	0.00	30.055 
17:20	78.3	78.3	80.6	74	69.3	0	0	---	0.00	30.055 
17:25	78.5	78.5	80.9	73	69.1	0	0	---	0.00	30.055 
17:30	78.6	78.6	81.1	75	70.0	0	1	68	0.00	30.044 
17:35	78.8	78.8	81.3	73	69.4	0	1	68	0.00	30.044 
17:40	79.2	79.2	82.0	73	69.8	0	1	68	0.00	30.044 
17:45	79.6	79.6	82.4	71	69.3	0	1	68	0.00	30.038 
17:50	79.9	79.9	82.9	71	69.6	0	2	68	0.00	30.038 
17:55	80.5	80.5	83.6	69	69.4	0	1	68	0.00	30.038 
18:00	81.1	81.1	84.1	66	68.6	0	1	68	0.00	30.041 
18:05	81.1	81.1	84.0	65	68.2	0	0	---	0.00	30.041 
18:10	80.9	80.9	83.8	66	68.4	0	1	68	0.00	30.041 
18:15	80.5	80.5	83.1	65	67.6	0	0	---	0.00	30.045 
18:20	80.3	80.3	82.7	64	67.0	0	0	---	0.00	30.045 
18:25	80.1	80.1	82.6	66	67.7	0	0	---	0.00	30.045 
18:30	80.1	80.1	82.4	64	66.8	0	1	68	0.00	30.046 
18:35	80.1	80.1	82.4	64	66.8	0	1	68	0.00	30.046 
18:40	80.1	80.1	82.2	62	65.9	0	1	68	0.00	30.046 
18:45	80.1	80.1	82.3	63	66.3	0	1	68	0.00	30.047 
18:50	80.1	80.1	82.4	64	66.8	0	0	---	0.00	30.047 
18:55	80.1	80.1	82.3	63	66.3	0	0	---	0.00	30.047 
19:00	79.9	79.9	82.1	64	66.6	0	0	---	0.00	30.056 
19:05	79.8	79.8	82.0	64	66.5	0	0	---	0.00	30.056 
19:10	79.6	79.6	81.8	65	66.8	0	0	---	0.00	30.056 
19:15	79.4	79.4	81.7	67	67.5	0	1	68	0.00	30.054 
19:20	79.4	79.4	82.3	73	70.0	1	3	68	0.00	30.054 
19:25	79.0	79.0	81.8	75	70.4	0	1	68	0.00	30.054 
19:30	78.6	78.6	81.2	77	70.8	0	1	68	0.00	30.053 
19:35	78.5	78.5	81.1	77	70.7	0	0	---	0.00	30.053 
19:40	78.1	78.1	80.4	78	70.7	0	0	---	0.00	30.053 
19:45	77.7	77.7	79.8	79	70.7	0	0	---	0.00	30.056 
19:50	77.6	77.6	79.6	80	70.9	0	0	---	0.00	30.056 
19:55	77.2	77.2	78.9	81	70.9	0	1	68	0.00	30.056 
20:00	76.8	76.8	78.2	81	70.5	0	0	---	0.00	30.049 
20:05	76.5	76.5	77.7	81	70.2	0	0	---	0.00	30.049 
20:10	76.3	76.3	77.3	82	70.4	0	0	---	0.00	30.049 
20:15	76.0	76.0	76.7	83	70.4	0	0	---	0.00	30.052 
20:20	75.6	75.6	76.1	83	70.1	0	0	---	0.00	30.052 
20:25	75.4	75.4	75.8	83	69.9	0	0	---	0.00	30.052 
20:30	75.3	75.3	75.5	84	70.1	0	0	---	0.00	30.059 
20:35	74.9	74.9	74.9	84	69.7	0	0	---	0.00	30.059 
20:40	74.7	74.7	74.7	84	69.5	0	0	---	0.00	30.059 
20:45	74.6	74.6	74.6	85	69.8	0	0	---	0.00	30.063 
20:50	74.2	74.2	74.2	86	69.7	0	0	---	0.00	30.063 
20:55	73.9	73.9	73.9	86	69.4	0	0	---	0.00	30.063 
21:00	73.5	73.5	73.5	87	69.4	0	0	---	0.00	30.078 
21:05	73.3	73.3	73.3	88	69.5	0	0	---	0.00	30.078 
21:10	73.2	73.2	73.2	88	69.4	0	0	---	0.00	30.078 
21:15	73.0	73.0	73.0	88	69.2	0	0	---	0.00	30.077 
21:20	72.7	72.7	72.7	88	68.9	0	0	---	0.00	30.077 
21:25	72.5	72.5	72.5	89	69.1	0	0	---	0.00	30.077 
21:30	72.3	72.3	72.3	89	68.9	0	0	---	0.00	30.078 
21:35	72.1	72.1	72.1	90	69.0	0	0	---	0.00	30.078 
21:40	72.0	72.0	72.0	90	68.9	0	0	---	0.00	30.078 
21:45	71.8	71.8	71.8	90	68.7	0	0	---	0.00	30.092 
21:50	71.6	71.6	71.6	91	68.8	0	0	---	0.00	30.092 
21:55	71.5	71.5	71.5	91	68.7	0	0	---	0.00	30.092 
22:00	71.3	71.3	71.3	91	68.5	0	0	---	0.00	30.092 
22:05	71.1	71.1	71.1	91	68.3	0	0	---	0.00	30.092 
22:10	70.9	70.9	70.9	91	68.1	0	0	---	0.00	30.092 
22:15	70.8	70.8	70.8	92	68.4	0	0	---	0.00	30.089 
22:20	70.8	70.8	70.8	92	68.4	0	0	---	0.00	30.089 
22:25	70.6	70.6	70.6	92	68.2	0	0	---	0.00	30.089 
22:30	70.4	70.4	70.4	92	68.0	0	0	---	0.00	30.091 
22:35	70.3	70.3	70.3	92	67.9	0	0	---	0.00	30.091 
22:40	70.1	70.1	70.1	92	67.7	0	0	---	0.00	30.091 
22:45	70.1	70.1	70.1	92	67.7	0	0	---	0.00	30.092 
22:50	69.9	69.9	69.9	92	67.5	0	0	---	0.00	30.092 
22:55	69.8	69.8	69.8	92	67.4	0	0	---	0.00	30.092 
23:00	69.6	69.6	69.6	92	67.2	0	0	---	0.00	30.093 
23:05	69.4	69.4	69.4	92	67.0	0	0	---	0.00	30.093 
23:10	69.3	69.3	69.3	92	66.9	0	0	---	0.00	30.093 
23:15	69.1	69.1	69.1	92	66.7	0	0	---	0.00	30.092 
23:20	69.1	69.1	69.1	92	66.7	0	0	---	0.00	30.092 
23:25	68.9	68.9	68.9	93	66.8	0	0	---	0.00	30.092 
23:30	68.8	68.8	68.8	93	66.7	0	0	---	0.00	30.090 
23:35	68.8	68.8	68.8	93	66.7	0	0	---	0.00	30.090 
23:40	68.6	68.6	68.6	93	66.5	0	0	---	0.00	30.090 
23:45	68.6	68.6	68.6	93	66.5	0	0	---	0.00	30.092 
23:50	68.6	68.6	68.6	93	66.5	0	0	---	0.00	30.092 
23:55	68.4	68.4	68.4	93	66.3	0	0	---	0.00	30.092 

CoCoRaHS
IN-AL-39
A2 Web Hosting
Creative Commons License
GoDaddy
search engine by freefind advanced

loaded 2018-11-16 23:17:06 • last modified 2010-11-18 10:43:29
Privacy PolicyDisclaimer
• wx.awcolley.com is powered by PmWiki v.2002016 •
• all content (unless otherwise noted) © 2018 A W Colley